Flagstaff, AZ

5:36 PM MST on January 16, 2018 (GMT -0700)
Flagstaff Pulliam

Weather History for KFLG - November, 2014

Change the Weather History Date:

Tuesday, November 11, 2014

  Actual Average Record
Temperature  
Mean Temperature 44 °F 38 °F  
Max Temperature 57 °F 52 °F 73 °F (1973)
Min Temperature 30 °F 24 °F 7 °F (1950)
Degree Days  
Heating Degree Days 21 27  
Month to date heating degree days 230 275  
Since 1 July heating degree days 901 1158  
Cooling Degree Days 0 0  
Month to date cooling degree days 0 0  
Year to date cooling degree days 109 117  
Moisture  
Dew Point 27 °F    
Average Humidity 55    
Maximum Humidity 78    
Minimum Humidity 32    
Precipitation  
Precipitation 0.00 in 0.05 in 3.21 in (1978)
Month to date precipitation 0.60 0.62  
Year to date precipitation 17.23 18.85  
Snow  
Snow 0.00 in 0.30 in 11.20 in (1972)
Month to date snowfall T 2.5  
Since 1 July snowfall T 4.0  
Snow Depth 0.00 in    
Sea Level Pressure  
Sea Level Pressure 29.88 in    
Wind  
Wind Speed 11 mph (WSW)    
Max Wind Speed 25 mph    
Max Gust Speed 32 mph    
Visibility 10 miles    
Events      
T = Trace of Precipitation, MM = Missing Value Source: NWS Daily Summary

Daily Weather History Graph

Daily Weather History Graph

Search for Another Location

Airport or City:

Trip Planner

Search our weather history database for the weather conditions in past years. The results will help you decide how hot, cold, wet, or windy it might be!

Date:

Astronomy

Nov. 11, 2014 Rise Set
Actual Time 6:57 AM MST 5:23 PM MST
Civil Twilight 6:30 AM MST 5:50 PM MST
Nautical Twilight 6:00 AM MST 6:20 PM MST
Astronomical Twilight 5:30 AM MST 6:50 PM MST
Moon 9:50 PM MST (11/11) 11:06 AM MST (11/11)
Length of Visible Light 11h 19m
Length of Day
10h 25m
Waning Gibbous, 76% of the Moon is Illuminated
Nov 11
Waning Gibbous
Nov 14
Last Quarter
Nov 22
New
Nov 29
First Quarter
Dec 6
Full

Hourly Weather History & Observations

Time (MST) Temp. Windchill Dew Point Humidity Pressure Visibility Wind Dir Wind Speed Gust Speed Precip Events Conditions
12:57 AM 30.0 °F 26.5 °F 24.1 °F 79% 29.89 in 10.0 mi WSW 3.5 mph - N/A   Clear
1:57 AM 37.0 °F 32.4 °F 26.1 °F 65% 29.86 in 10.0 mi WNW 5.8 mph - N/A   Clear
2:57 AM 37.9 °F 32.7 °F 27.0 °F 65% 29.85 in 10.0 mi West 6.9 mph - N/A   Clear
3:57 AM 39.9 °F 34.5 °F 27.0 °F 60% 29.85 in 10.0 mi West 8.1 mph - N/A   Clear
4:57 AM 37.0 °F 33.3 °F 28.0 °F 70% 29.88 in 10.0 mi West 4.6 mph - N/A   Clear
5:57 AM 39.0 °F 34.0 °F 28.0 °F 65% 29.88 in 10.0 mi WSW 6.9 mph - N/A   Clear
6:57 AM 39.0 °F 34.8 °F 26.1 °F 60% 29.91 in 10.0 mi WSW 5.8 mph - N/A   Clear
7:57 AM 43.0 °F 40.3 °F 27.0 °F 53% 29.92 in 10.0 mi West 4.6 mph - N/A   Clear
8:57 AM 46.9 °F - 28.0 °F 48% 29.93 in 10.0 mi SW 11.5 mph - N/A   Clear
9:57 AM 50.0 °F - 28.0 °F 43% 29.93 in 10.0 mi SW 15.0 mph - N/A   Clear
10:57 AM 53.1 °F - 28.0 °F 38% 29.91 in 10.0 mi SSW 16.1 mph 21.9 mph N/A   Clear
11:57 AM 54.0 °F - 28.0 °F 37% 29.91 in 10.0 mi SSW 18.4 mph 24.2 mph N/A   Clear
12:57 PM 55.0 °F - 28.0 °F 35% 29.88 in 10.0 mi SSW 18.4 mph 26.5 mph N/A   Clear
1:57 PM 55.9 °F - 27.0 °F 33% 29.84 in 10.0 mi SW 24.2 mph 31.1 mph N/A   Clear
2:57 PM 55.9 °F - 27.0 °F 33% 29.84 in 10.0 mi SW 23.0 mph 27.6 mph N/A   Clear
3:57 PM 55.0 °F - 28.0 °F 35% 29.83 in 10.0 mi SSW 21.9 mph 27.6 mph N/A   Clear
4:57 PM 52.0 °F - 26.1 °F 37% 29.84 in 10.0 mi SW 17.3 mph 24.2 mph N/A   Clear
5:57 PM 48.9 °F - 25.0 °F 39% 29.87 in 10.0 mi WSW 11.5 mph 21.9 mph N/A   Clear
6:57 PM 46.9 °F - 28.0 °F 48% 29.89 in 10.0 mi SW 15.0 mph 21.9 mph N/A   Clear
7:57 PM 45.0 °F 41.2 °F 28.0 °F 52% 29.90 in 10.0 mi WSW 6.9 mph - N/A   Clear
8:57 PM 43.0 °F 39.5 °F 28.0 °F 56% 29.89 in 10.0 mi West 5.8 mph - N/A   Clear
9:57 PM 39.9 °F 35.1 °F 28.0 °F 63% 29.90 in 10.0 mi West 6.9 mph - N/A   Clear
10:57 PM 39.0 °F 35.7 °F 28.0 °F 65% 29.89 in 10.0 mi West 4.6 mph - N/A   Clear
11:57 PM 33.1 °F 30.0 °F 27.0 °F 78% 29.91 in 10.0 mi ENE 3.5 mph - N/A   Clear